sat.trackr.live / text

‹ back to catalog

STARLINK-32536

NORAD 61925 · 2024-207P

PAYLOAD ACTIVE UNKNOWN

§ Identity

Operator
Country
US
Launch date
2024-11-11
Launch site
AFETR
Launch vehicle
Mass (kg)
RCS (m²)

Purposes: comms

External: N2YO · Heavens-Above · Gunter

§ Orbital elements

Epoch: 2026-09-21T16:49:59.265696Z

Period
94.27 min
Inclination
42.9995°
Eccentricity
0.0000899
Mean motion
15.27584241 rev/d
Perigee alt
482.4 km
Apogee alt
483.7 km
Semi-major
6,861.2 km
B*
4.4340e-4
RAAN
258.7342°
Arg perigee
266.6105°
Mean anomaly
93.4644°
Rev number
10,465

§ Raw data

STARLINK-325361 61925U 24207P   26264.70138039  .00011961  00000+0  44340-3 0  99942 61925  42.9995 258.7342 0000899 266.6105  93.4644 15.27584241104651

JSON: /api/v1/satellites/61925 · /tle

For live sub-satellite position, see the globe view (requires WebGL).

§ Visibility from observer

Set your observer location to see the next 7 days of passes ≥ 10°. The values pass through the URL so the page stays shareable.

No JS? Fill the form by hand. The geolocation button needs JavaScript.